• In Czech Republic
  • List of Countries
  • For 7 days
  • Water Temperature
  • Satellite Maps
  • Weather Map
  • Weather Widgets
  • user-avatar
    Login

    Hourly Weather Naftalan

    Today, 24 February, Saturday

    Time Temperature Precipitation Wind Pressure Humidity
    00:00 +6°C° 0 mm 2 mps 763 mmHg 93%
    01:00 +6°C° 0 mm 2 mps 763 mmHg 93%
    02:00 +6°C° 0 mm 2 mps 762 mmHg 93%
    03:00 +6°C° 0 mm 2 mps 762 mmHg 94%
    04:00 +6°C° 0 mm 2 mps 762 mmHg 93%
    05:00 +6°C° 0 mm 2 mps 762 mmHg 93%
    06:00 +5°C° 0 mm 3 mps 762 mmHg 93%
    07:00 +7°C° 0 mm 3 mps 762 mmHg 89%
    08:00 +8°C° 0 mm 2 mps 762 mmHg 85%
    09:00 +9°C° 0 mm 2 mps 761 mmHg 81%
    10:00 +10°C° 0 mm 2 mps 761 mmHg 76%
    11:00 +12°C° 0 mm 2 mps 761 mmHg 71%
    12:00 +13°C° 0 mm 2 mps 761 mmHg 66%
    13:00 +14°C° 0 mm 2 mps 761 mmHg 66%
    14:00 +14°C° 0 mm 2 mps 761 mmHg 65%
    15:00 +14°C° 0 mm 2 mps 760 mmHg 65%
    16:00 +13°C° 0 mm 2 mps 761 mmHg 72%
    17:00 +11°C° 0 mm 3 mps 761 mmHg 79%
    18:00 +10°C° 0 mm 3 mps 761 mmHg 86%
    19:00 +9°C° 0 mm 3 mps 761 mmHg 88%
    20:00 +9°C° 0 mm 3 mps 761 mmHg 90%
    21:00 +8°C° 0 mm 3 mps 761 mmHg 92%
    22:00 +8°C° 0 mm 3 mps 761 mmHg 92%
    23:00 +8°C° 0 mm 3 mps 761 mmHg 92%

    Tomorrow, 25 February, Sunday

    Time Temperature Precipitation Wind Pressure Humidity
    00:00 +8°C° 0 mm 2 mps 761 mmHg 93%
    01:00 +8°C° 0 mm 2 mps 761 mmHg 92%
    02:00 +8°C° 0 mm 2 mps 760 mmHg 92%
    03:00 +9°C° 0 mm 1 mps 760 mmHg 91%
    04:00 +9°C° 0 mm 1 mps 760 mmHg 91%
    05:00 +9°C° 0 mm 1 mps 760 mmHg 90%
    06:00 +9°C° 0 mm 1 mps 761 mmHg 90%
    07:00 +9°C° 0 mm 1 mps 761 mmHg 87%
    08:00 +9°C° 0 mm 2 mps 761 mmHg 84%
    09:00 +10°C° 0 mm 2 mps 761 mmHg 81%
    10:00 +12°C° 0 mm 2 mps 760 mmHg 77%
    11:00 +13°C° 0 mm 2 mps 760 mmHg 73%
    12:00 +14°C° 0 mm 2 mps 760 mmHg 69%
    13:00 +14°C° 0 mm 2 mps 759 mmHg 66%
    14:00 +15°C° 0 mm 2 mps 759 mmHg 63%
    15:00 +16°C° 0 mm 2 mps 758 mmHg 60%
    16:00 +14°C° 0 mm 2 mps 758 mmHg 67%
    17:00 +12°C° 0 mm 3 mps 758 mmHg 75%
    18:00 +11°C° 0 mm 3 mps 758 mmHg 83%
    19:00 +10°C° 0 mm 3 mps 758 mmHg 84%
    20:00 +10°C° 0 mm 4 mps 758 mmHg 86%
    21:00 +8°C° 0 mm 4 mps 758 mmHg 87%
    22:00 +9°C° 0 mm 3 mps 758 mmHg 87%
    23:00 +9°C° 0 mm 3 mps 758 mmHg 86%

    Day after tomorrow, 26 February, Monday

    Time Temperature Precipitation Wind Pressure Humidity
    00:00 +9°C° 0 mm 3 mps 758 mmHg 85%
    01:00 +9°C° 0 mm 2 mps 758 mmHg 85%
    02:00 +9°C° 0 mm 2 mps 758 mmHg 85%
    03:00 +9°C° 0 mm 2 mps 757 mmHg 85%
    04:00 +9°C° 0 mm 1 mps 758 mmHg 85%
    05:00 +9°C° 0 mm 1 mps 758 mmHg 85%
    06:00 +9°C° 0 mm 1 mps 758 mmHg 84%
    07:00 +10°C° 0 mm 1 mps 758 mmHg 80%
    08:00 +12°C° 0 mm 1 mps 758 mmHg 76%
    09:00 +13°C° 0 mm 1 mps 759 mmHg 72%
    10:00 +15°C° 0 mm 1 mps 759 mmHg 65%
    11:00 +16°C° 0 mm 1 mps 759 mmHg 59%
    12:00 +18°C° 0 mm 2 mps 758 mmHg 52%
    13:00 +18°C° 0 mm 3 mps 758 mmHg 49%
    14:00 +18°C° 0 mm 4 mps 758 mmHg 47%
    15:00 +18°C° 0 mm 4 mps 758 mmHg 44%
    16:00 +15°C° 0 mm 6 mps 759 mmHg 55%
    17:00 +12°C° 0 mm 7 mps 760 mmHg 66%
    18:00 +9°C° 0 mm 8 mps 760 mmHg 78%
    19:00 +9°C° 0 mm 8 mps 761 mmHg 77%
    20:00 +7°C° 0 mm 8 mps 762 mmHg 77%
    21:00 +7°C° 0 mm 8 mps 763 mmHg 77%
    22:00 +7°C° 0.1 mm 8 mps 763 mmHg 76%
    23:00 +8°C° 0.1 mm 7 mps 763 mmHg 75%

    27 February, Tuesday

    Time Temperature Precipitation Wind Pressure Humidity
    00:00 +8°C° 0.1 mm 7 mps 764 mmHg 74%
    01:00 +6°C° 0.2 mm 7 mps 764 mmHg 75%
    02:00 +6°C° 0.2 mm 7 mps 764 mmHg 75%
    03:00 +7°C° 0.2 mm 6 mps 764 mmHg 76%
    04:00 +7°C° 0.2 mm 6 mps 764 mmHg 77%
    05:00 +7°C° 0.2 mm 6 mps 765 mmHg 79%
    06:00 +5°C° 0.2 mm 6 mps 765 mmHg 80%
    07:00 +7°C° 0.1 mm 6 mps 765 mmHg 78%
    08:00 +7°C° 0.1 mm 6 mps 766 mmHg 76%
    09:00 +8°C° 0.1 mm 6 mps 766 mmHg 74%
    10:00 +8°C° 0 mm 6 mps 766 mmHg 72%
    11:00 +9°C° 0 mm 6 mps 766 mmHg 69%
    12:00 +9°C° 0 mm 6 mps 766 mmHg 67%
    13:00 +10°C° 0 mm 5 mps 765 mmHg 66%
    14:00 +10°C° 0 mm 5 mps 765 mmHg 66%
    15:00 +11°C° 0 mm 4 mps 764 mmHg 66%
    16:00 +10°C° 0 mm 4 mps 765 mmHg 70%
    17:00 +9°C° 0 mm 3 mps 765 mmHg 75%
    18:00 +8°C° 0 mm 3 mps 765 mmHg 79%
    19:00 +7°C° 0 mm 3 mps 765 mmHg 81%
    20:00 +7°C° 0 mm 2 mps 766 mmHg 83%
    21:00 +7°C° 0 mm 2 mps 766 mmHg 86%
    22:00 +7°C° 0 mm 2 mps 766 mmHg 87%
    23:00 +7°C° 0 mm 1 mps 765 mmHg 89%

    28 February, Wednesday

    Time Temperature Precipitation Wind Pressure Humidity
    00:00 +7°C° 0 mm 1 mps 765 mmHg 90%
    01:00 +7°C° 0 mm 1 mps 765 mmHg 91%
    02:00 +7°C° 0 mm 1 mps 765 mmHg 92%
    03:00 +7°C° 0 mm 1 mps 765 mmHg 93%
    04:00 +7°C° 0 mm 1 mps 765 mmHg 93%
    05:00 +7°C° 0 mm 1 mps 766 mmHg 93%
    06:00 +6°C° 0 mm 1 mps 766 mmHg 93%
    07:00 +8°C° 0 mm 1 mps 767 mmHg 87%
    08:00 +9°C° 0 mm 1 mps 767 mmHg 82%
    09:00 +10°C° 0 mm 1 mps 767 mmHg 76%
    10:00 +12°C° 0 mm 1 mps 767 mmHg 70%
    11:00 +13°C° 0 mm 1 mps 767 mmHg 64%
    12:00 +14°C° 0 mm 2 mps 767 mmHg 58%
    13:00 +13°C° 0 mm 3 mps 767 mmHg 59%
    14:00 +14°C° 0 mm 3 mps 767 mmHg 59%
    15:00 +14°C° 0 mm 4 mps 767 mmHg 60%
    16:00 +12°C° 0 mm 4 mps 767 mmHg 66%
    17:00 +10°C° 0 mm 5 mps 768 mmHg 71%
    18:00 +8°C° 0 mm 5 mps 768 mmHg 77%
    19:00 +8°C° 0 mm 4 mps 768 mmHg 79%
    20:00 +7°C° 0 mm 4 mps 768 mmHg 81%
    21:00 +8°C° 0 mm 3 mps 768 mmHg 83%
    22:00 +8°C° 0 mm 3 mps 768 mmHg 85%
    23:00 +7°C° 0 mm 2 mps 768 mmHg 86%

    1 March, Thursday

    Time Temperature Precipitation Wind Pressure Humidity
    00:00 +7°C° 0 mm 2 mps 768 mmHg 88%
    01:00 +7°C° 0 mm 2 mps 767 mmHg 88%
    02:00 +7°C° 0 mm 2 mps 767 mmHg 89%
    03:00 +7°C° 0 mm 1 mps 766 mmHg 90%
    04:00 +7°C° 0 mm 1 mps 766 mmHg 90%
    05:00 +7°C° 0 mm 1 mps 766 mmHg 90%
    06:00 +7°C° 0 mm 1 mps 766 mmHg 91%
    07:00 +7°C° 0 mm 2 mps 766 mmHg 85%
    08:00 +9°C° 0 mm 2 mps 766 mmHg 80%
    09:00 +10°C° 0 mm 2 mps 766 mmHg 74%
    10:00 +12°C° 0 mm 2 mps 765 mmHg 71%
    11:00 +13°C° 0 mm 2 mps 765 mmHg 68%
    12:00 +14°C° 0 mm 2 mps 764 mmHg 66%
    13:00 +14°C° 0 mm 3 mps 764 mmHg 65%
    14:00 +14°C° 0 mm 3 mps 763 mmHg 65%
    15:00 +14°C° 0 mm 3 mps 763 mmHg 65%
    16:00 +13°C° 0 mm 3 mps 763 mmHg 72%
    17:00 +12°C° 0 mm 3 mps 763 mmHg 79%
    18:00 +10°C° 0 mm 4 mps 763 mmHg 85%
    19:00 +10°C° 0 mm 3 mps 763 mmHg 87%
    20:00 +10°C° 0 mm 3 mps 764 mmHg 88%
    21:00 +9°C° 0 mm 3 mps 764 mmHg 90%
    22:00 +9°C° 0 mm 3 mps 764 mmHg 90%
    23:00 +9°C° 0 mm 2 mps 764 mmHg 91%
    Show more